GEFSGL_prec_meanprecacc_360.txt.gz
Total_Precipitation_Accumulation
1.25 1.31 1.33 1.29 1.27 1.24 1.19 1.14 1.18 1.25 1.25 1.24 1.38 1.47 1.55 1.64 1.81 2.05 2.19 2.19 2.12 2.13 2.13 2.23 2.43 2.56 2.79 2.73 2.63 2.57 2.47 2.38 2.26 2.01 1.75 1.58 1.64 1.68 1.80 1.90 1.88 1.78 1.59
1.37 1.41 1.35 1.29 1.25 1.21 1.17 1.09 1.07 1.02 1.00 1.11 1.25 1.29 1.34 1.37 1.56 1.86 2.05 2.10 2.08 1.97 1.92 2.02 2.27 2.48 2.70 2.81 2.76 2.64 2.57 2.45 2.36 2.32 2.12 1.87 1.75 1.76 1.91 2.02 1.97 1.89 1.82
1.44 1.33 1.27 1.21 1.14 1.10 1.01 0.97 0.99 0.98 1.04 1.13 1.19 1.22 1.26 1.32 1.36 1.50 1.69 1.83 1.83 1.78 1.78 1.79 1.81 2.01 2.32 2.53 2.57 2.64 2.66 2.62 2.60 2.49 2.32 2.21 2.07 1.86 1.97 2.06 2.04 2.06 1.94
1.60 1.50 1.37 1.26 1.17 1.13 1.04 0.96 0.93 0.96 1.06 1.13 1.15 1.21 1.29 1.33 1.34 1.38 1.41 1.47 1.52 1.61 1.65 1.64 1.67 1.72 1.95 2.16 2.26 2.44 2.68 2.71 2.77 2.72 2.48 2.35 2.28 2.04 2.10 2.22 2.31 2.24 2.14
1.56 1.57 1.46 1.28 1.15 1.09 1.04 0.97 0.94 0.94 0.97 1.05 1.10 1.11 1.15 1.24 1.35 1.41 1.30 1.27 1.36 1.45 1.43 1.37 1.39 1.57 1.79 1.93 1.90 2.18 2.53 2.74 2.77 2.75 2.60 2.55 2.34 2.16 2.03 2.00 2.16 2.39 2.39
1.35 1.38 1.23 1.09 0.94 0.87 0.89 0.92 0.93 0.91 0.95 0.98 0.94 0.95 1.03 1.06 1.34 1.37 1.22 1.14 1.19 1.29 1.37 1.36 1.24 1.26 1.38 1.51 1.57 1.70 1.96 2.19 2.52 2.74 2.67 2.57 2.28 2.12 2.08 2.05 2.05 2.16 2.36
0.95 0.98 0.91 0.84 0.83 0.88 0.91 0.87 0.88 0.91 0.92 0.94 0.91 0.90 0.92 1.05 1.19 1.10 1.14 1.07 1.10 1.17 1.26 1.36 1.27 1.17 1.32 1.34 1.47 1.56 1.52 1.59 1.91 2.30 2.47 2.49 2.47 2.36 2.27 2.11 2.04 2.09 2.14
0.66 0.70 0.69 0.69 0.72 0.80 0.84 0.82 0.89 0.93 0.89 0.91 0.96 0.96 0.95 1.02 1.07 0.99 1.09 1.03 1.01 1.06 1.19 1.30 1.35 1.29 1.35 1.48 1.43 1.43 1.36 1.35 1.62 1.65 1.88 2.27 2.44 2.50 2.39 2.38 2.51 2.45 2.26
0.36 0.39 0.44 0.49 0.52 0.55 0.58 0.67 0.80 0.88 0.90 0.95 1.00 1.00 0.92 0.93 1.04 1.00 1.05 1.01 1.00 1.02 1.04 1.13 1.23 1.19 1.45 1.60 1.47 1.57 1.57 1.45 1.66 1.77 1.85 1.96 2.16 2.35 2.39 2.33 2.35 2.41 2.35
0.25 0.27 0.31 0.35 0.38 0.41 0.47 0.54 0.62 0.66 0.74 0.87 0.91 0.92 0.93 0.92 1.17 1.12 1.11 1.00 1.02 1.09 1.10 1.07 1.26 1.29 1.48 1.49 1.33 1.52 1.58 1.54 1.52 1.57 1.57 1.61 1.57 1.76 2.05 2.09 2.26 2.31 2.21
0.31 0.32 0.33 0.33 0.35 0.40 0.45 0.49 0.54 0.59 0.69 0.76 0.80 0.84 0.92 1.03 1.24 1.28 1.30 1.15 1.13 1.23 1.20 1.09 1.03 1.25 1.17 1.27 1.28 1.25 1.52 1.59 1.52 1.63 1.66 1.55 1.52 1.57 1.68 1.82 2.06 2.20 2.16
0.34 0.35 0.36 0.36 0.39 0.42 0.47 0.52 0.56 0.61 0.64 0.68 0.72 0.76 0.81 0.90 1.02 1.13 1.17 1.18 1.20 1.20 1.22 1.11 1.11 1.27 1.11 1.09 1.07 1.16 1.41 1.54 1.48 1.60 1.66 1.65 1.56 1.49 1.53 1.61 1.71 1.78 1.79
0.33 0.34 0.38 0.39 0.40 0.41 0.46 0.52 0.57 0.60 0.62 0.65 0.69 0.76 0.79 0.83 0.90 0.97 0.97 1.03 1.11 1.11 1.09 1.18 1.22 1.21 1.10 0.99 0.99 1.09 1.18 1.26 1.45 1.52 1.48 1.48 1.47 1.49 1.53 1.53 1.57 1.59 1.60
0.34 0.37 0.38 0.39 0.41 0.43 0.47 0.51 0.55 0.59 0.62 0.66 0.71 0.76 0.78 0.81 0.84 0.86 0.94 1.01 0.99 0.99 1.00 1.01 1.03 1.06 1.04 0.95 0.96 1.02 1.10 1.21 1.32 1.33 1.31 1.32 1.41 1.51 1.63 1.66 1.65 1.62 1.65
0.32 0.35 0.35 0.37 0.41 0.44 0.47 0.49 0.51 0.56 0.66 0.75 0.77 0.80 0.77 0.73 0.76 0.83 0.92 1.01 1.10 1.18 1.24 1.14 1.12 1.11 1.08 1.01 0.99 1.00 1.08 1.18 1.21 1.17 1.18 1.19 1.23 1.38 1.53 1.61 1.68 1.67 1.63
0.37 0.35 0.34 0.36 0.40 0.43 0.45 0.46 0.50 0.53 0.63 0.68 0.69 0.69 0.68 0.70 0.75 0.76 0.80 0.91 1.04 1.22 1.34 1.29 1.34 1.35 1.30 1.24 1.18 1.12 1.07 1.09 1.15 1.23 1.26 1.26 1.24 1.31 1.45 1.53 1.60 1.65 1.62
0.37 0.39 0.39 0.40 0.40 0.44 0.44 0.44 0.49 0.50 0.53 0.57 0.61 0.63 0.69 0.78 0.82 0.84 0.86 0.92 0.97 1.12 1.28 1.30 1.34 1.37 1.31 1.30 1.32 1.24 1.13 1.10 1.14 1.23 1.29 1.34 1.37 1.41 1.51 1.58 1.61 1.66 1.67
0.38 0.41 0.43 0.44 0.45 0.47 0.52 0.55 0.56 0.59 0.60 0.56 0.54 0.56 0.60 0.69 0.76 0.80 0.91 1.02 0.99 1.06 1.14 1.19 1.22 1.15 1.12 1.14 1.15 1.15 1.10 1.07 1.10 1.13 1.18 1.25 1.35 1.44 1.52 1.60 1.63 1.64 1.65
0.37 0.42 0.46 0.51 0.55 0.53 0.56 0.62 0.64 0.57 0.54 0.54 0.54 0.55 0.57 0.59 0.63 0.69 0.80 0.94 0.97 0.95 0.92 0.91 0.91 0.92 0.93 0.98 0.99 0.99 1.01 1.01 1.02 1.07 1.10 1.17 1.26 1.35 1.42 1.47 1.56 1.65 1.63
0.36 0.45 0.49 0.51 0.54 0.53 0.54 0.59 0.61 0.60 0.60 0.62 0.63 0.66 0.68 0.67 0.67 0.71 0.75 0.81 0.81 0.79 0.80 0.83 0.85 0.89 0.95 0.98 1.01 1.03 1.03 1.03 1.04 1.06 1.09 1.16 1.22 1.30 1.37 1.42 1.50 1.59 1.57
0.39 0.42 0.46 0.50 0.52 0.54 0.55 0.59 0.61 0.62 0.65 0.68 0.67 0.72 0.80 0.77 0.77 0.80 0.86 0.88 0.88 0.88 0.87 0.87 0.86 0.87 0.97 1.02 1.05 1.08 1.09 1.10 1.11 1.13 1.16 1.20 1.27 1.33 1.35 1.43 1.51 1.55 1.61
0.40 0.42 0.45 0.50 0.53 0.56 0.59 0.63 0.69 0.68 0.68 0.72 0.71 0.73 0.81 0.78 0.77 0.76 0.80 0.84 0.86 0.89 0.94 0.98 0.98 0.94 0.96 1.06 1.13 1.16 1.20 1.21 1.20 1.21 1.22 1.24 1.31 1.33 1.35 1.44 1.55 1.58 1.62
0.48 0.50 0.52 0.54 0.56 0.59 0.62 0.65 0.71 0.71 0.71 0.74 0.77 0.75 0.75 0.79 0.79 0.76 0.77 0.80 0.83 0.87 0.93 1.00 1.05 1.02 0.96 0.99 1.08 1.18 1.24 1.25 1.26 1.29 1.36 1.38 1.37 1.37 1.40 1.45 1.53 1.60 1.59
0.53 0.58 0.63 0.66 0.68 0.69 0.70 0.73 0.76 0.74 0.75 0.78 0.80 0.80 0.80 0.83 0.83 0.81 0.83 0.86 0.91 0.95 0.98 1.02 1.05 1.02 0.99 0.99 1.03 1.11 1.18 1.21 1.22 1.26 1.33 1.43 1.46 1.43 1.46 1.53 1.59 1.62 1.70
0.56 0.59 0.63 0.67 0.69 0.71 0.73 0.75 0.78 0.77 0.77 0.80 0.82 0.82 0.83 0.87 0.89 0.86 0.85 0.85 0.89 0.94 0.95 0.99 1.04 1.05 1.04 1.03 1.02 1.08 1.25 1.30 1.28 1.28 1.30 1.39 1.43 1.45 1.51 1.61 1.72 1.75 1.80
0.54 0.60 0.63 0.68 0.70 0.74 0.77 0.77 0.80 0.83 0.83 0.83 0.84 0.88 0.89 0.89 0.89 0.88 0.89 0.88 0.88 0.89 0.90 0.93 0.97 0.99 1.01 1.05 1.07 1.16 1.25 1.18 1.15 1.24 1.27 1.35 1.42 1.43 1.46 1.53 1.58 1.65 1.71

GEFSGL_prec_meanprecacc_366.txt.gz
Total_Precipitation_Accumulation
1.27 1.32 1.34 1.30 1.28 1.26 1.21 1.16 1.20 1.27 1.26 1.25 1.39 1.48 1.55 1.65 1.82 2.05 2.20 2.22 2.16 2.17 2.17 2.25 2.45 2.57 2.80 2.74 2.64 2.58 2.49 2.40 2.29 2.03 1.77 1.60 1.67 1.70 1.82 1.92 1.90 1.81 1.63
1.39 1.43 1.37 1.31 1.26 1.23 1.19 1.10 1.09 1.05 1.03 1.13 1.27 1.30 1.34 1.37 1.57 1.86 2.06 2.11 2.11 2.01 1.96 2.07 2.31 2.50 2.71 2.82 2.77 2.65 2.59 2.47 2.39 2.36 2.17 1.92 1.79 1.78 1.93 2.04 1.99 1.91 1.84
1.47 1.37 1.30 1.23 1.15 1.11 1.02 0.98 1.01 1.00 1.07 1.17 1.22 1.26 1.29 1.34 1.37 1.51 1.70 1.84 1.85 1.80 1.81 1.83 1.85 2.05 2.35 2.56 2.60 2.66 2.68 2.64 2.64 2.54 2.38 2.29 2.13 1.90 2.01 2.08 2.06 2.07 1.96
1.62 1.52 1.40 1.28 1.18 1.14 1.05 0.96 0.94 0.97 1.06 1.14 1.17 1.23 1.31 1.35 1.36 1.39 1.42 1.48 1.54 1.62 1.67 1.67 1.71 1.76 2.00 2.21 2.30 2.46 2.70 2.74 2.81 2.78 2.53 2.43 2.36 2.09 2.12 2.25 2.34 2.26 2.16
1.58 1.59 1.48 1.31 1.17 1.10 1.05 0.97 0.94 0.95 0.97 1.05 1.11 1.11 1.16 1.25 1.36 1.42 1.31 1.27 1.36 1.46 1.45 1.39 1.42 1.60 1.82 1.96 1.93 2.20 2.54 2.75 2.80 2.79 2.64 2.60 2.40 2.21 2.07 2.04 2.19 2.42 2.42
1.38 1.41 1.26 1.11 0.97 0.89 0.90 0.92 0.93 0.91 0.96 0.99 0.94 0.96 1.04 1.07 1.34 1.38 1.22 1.15 1.20 1.30 1.39 1.37 1.25 1.28 1.40 1.53 1.58 1.72 1.97 2.21 2.54 2.77 2.70 2.60 2.31 2.16 2.13 2.09 2.08 2.19 2.39
0.97 0.99 0.94 0.88 0.87 0.90 0.92 0.88 0.89 0.91 0.93 0.95 0.92 0.90 0.93 1.06 1.20 1.10 1.15 1.08 1.12 1.18 1.27 1.36 1.28 1.17 1.33 1.36 1.49 1.58 1.54 1.61 1.94 2.33 2.49 2.51 2.49 2.39 2.31 2.15 2.08 2.12 2.17
0.67 0.71 0.71 0.72 0.76 0.83 0.86 0.84 0.90 0.94 0.90 0.91 0.96 0.97 0.95 1.03 1.09 1.00 1.10 1.05 1.03 1.08 1.21 1.31 1.36 1.30 1.35 1.49 1.45 1.46 1.39 1.38 1.65 1.68 1.91 2.31 2.47 2.52 2.41 2.41 2.54 2.47 2.28
0.38 0.40 0.46 0.51 0.54 0.58 0.60 0.69 0.82 0.90 0.92 0.95 1.00 1.00 0.93 0.94 1.05 1.01 1.06 1.03 1.02 1.04 1.07 1.15 1.25 1.20 1.46 1.61 1.49 1.60 1.59 1.48 1.71 1.83 1.90 2.01 2.20 2.38 2.41 2.35 2.38 2.44 2.37
0.26 0.28 0.32 0.36 0.39 0.43 0.49 0.56 0.64 0.69 0.76 0.89 0.92 0.93 0.94 0.92 1.17 1.13 1.12 1.02 1.04 1.11 1.13 1.10 1.29 1.32 1.50 1.51 1.35 1.55 1.61 1.57 1.56 1.61 1.61 1.64 1.60 1.80 2.08 2.11 2.29 2.34 2.24
0.32 0.33 0.34 0.35 0.37 0.42 0.47 0.51 0.56 0.61 0.71 0.77 0.81 0.85 0.93 1.04 1.25 1.29 1.31 1.16 1.15 1.25 1.22 1.11 1.06 1.28 1.20 1.30 1.31 1.28 1.55 1.62 1.55 1.66 1.69 1.58 1.54 1.59 1.70 1.84 2.09 2.23 2.19
0.35 0.36 0.37 0.38 0.40 0.43 0.48 0.53 0.58 0.63 0.66 0.70 0.73 0.77 0.82 0.91 1.03 1.14 1.18 1.19 1.21 1.21 1.23 1.12 1.12 1.29 1.13 1.12 1.09 1.19 1.45 1.57 1.51 1.62 1.68 1.68 1.59 1.52 1.56 1.64 1.74 1.81 1.81
0.34 0.35 0.38 0.40 0.41 0.41 0.47 0.54 0.58 0.61 0.63 0.67 0.70 0.76 0.80 0.84 0.91 0.98 0.98 1.04 1.12 1.11 1.10 1.19 1.23 1.22 1.11 1.00 1.00 1.11 1.20 1.28 1.46 1.54 1.50 1.50 1.49 1.52 1.56 1.56 1.60 1.62 1.63
0.35 0.37 0.38 0.39 0.41 0.44 0.47 0.53 0.57 0.61 0.64 0.67 0.72 0.76 0.79 0.81 0.84 0.86 0.95 1.02 1.00 0.99 1.01 1.02 1.05 1.07 1.05 0.96 0.97 1.04 1.11 1.23 1.35 1.35 1.33 1.34 1.42 1.52 1.65 1.68 1.67 1.64 1.67
0.32 0.35 0.36 0.37 0.42 0.44 0.47 0.50 0.52 0.58 0.69 0.77 0.79 0.81 0.77 0.74 0.76 0.84 0.93 1.03 1.12 1.19 1.25 1.15 1.12 1.12 1.09 1.02 1.00 1.01 1.09 1.19 1.23 1.19 1.21 1.21 1.25 1.39 1.54 1.62 1.70 1.69 1.65
0.38 0.36 0.35 0.37 0.41 0.44 0.46 0.47 0.51 0.54 0.65 0.71 0.71 0.71 0.70 0.71 0.76 0.77 0.81 0.92 1.06 1.23 1.35 1.30 1.34 1.35 1.31 1.25 1.19 1.13 1.09 1.11 1.16 1.24 1.28 1.28 1.26 1.33 1.48 1.56 1.64 1.68 1.65
0.38 0.40 0.40 0.40 0.41 0.45 0.45 0.45 0.50 0.51 0.53 0.58 0.63 0.65 0.71 0.81 0.84 0.85 0.87 0.93 0.98 1.13 1.28 1.30 1.35 1.37 1.32 1.31 1.33 1.25 1.14 1.10 1.15 1.23 1.30 1.35 1.38 1.43 1.53 1.60 1.64 1.70 1.71
0.39 0.42 0.45 0.45 0.46 0.48 0.53 0.56 0.57 0.60 0.60 0.56 0.55 0.57 0.61 0.71 0.78 0.83 0.93 1.03 1.00 1.06 1.14 1.19 1.22 1.15 1.13 1.15 1.15 1.15 1.10 1.08 1.11 1.14 1.19 1.27 1.37 1.46 1.54 1.63 1.66 1.66 1.68
0.38 0.43 0.47 0.53 0.56 0.54 0.56 0.62 0.64 0.58 0.54 0.54 0.54 0.56 0.58 0.61 0.66 0.72 0.83 0.96 0.98 0.96 0.94 0.93 0.92 0.93 0.93 0.99 1.00 1.00 1.02 1.02 1.03 1.08 1.12 1.19 1.28 1.37 1.44 1.50 1.59 1.68 1.66
0.37 0.46 0.50 0.52 0.55 0.55 0.55 0.60 0.61 0.61 0.60 0.63 0.63 0.67 0.69 0.68 0.70 0.75 0.78 0.84 0.85 0.82 0.84 0.86 0.87 0.91 0.97 0.99 1.02 1.04 1.04 1.04 1.05 1.07 1.11 1.17 1.24 1.33 1.40 1.45 1.53 1.62 1.60
0.40 0.43 0.48 0.51 0.53 0.56 0.56 0.60 0.62 0.63 0.66 0.69 0.68 0.73 0.81 0.78 0.78 0.83 0.90 0.93 0.92 0.92 0.91 0.90 0.89 0.90 0.99 1.04 1.06 1.09 1.11 1.11 1.12 1.15 1.17 1.22 1.29 1.35 1.38 1.46 1.55 1.59 1.64
0.42 0.44 0.46 0.51 0.54 0.57 0.60 0.64 0.70 0.69 0.69 0.73 0.73 0.75 0.83 0.79 0.78 0.78 0.82 0.87 0.90 0.94 0.98 1.01 1.01 0.97 0.99 1.09 1.16 1.19 1.22 1.23 1.22 1.23 1.24 1.27 1.33 1.36 1.39 1.48 1.59 1.62 1.66
0.50 0.52 0.54 0.55 0.57 0.60 0.63 0.66 0.72 0.72 0.72 0.76 0.79 0.78 0.78 0.81 0.81 0.79 0.80 0.82 0.85 0.90 0.96 1.03 1.08 1.05 1.00 1.03 1.12 1.21 1.28 1.29 1.30 1.34 1.41 1.43 1.42 1.42 1.45 1.50 1.57 1.64 1.63
0.55 0.60 0.65 0.68 0.69 0.70 0.71 0.74 0.78 0.76 0.76 0.80 0.82 0.83 0.83 0.87 0.87 0.84 0.85 0.88 0.92 0.96 0.99 1.04 1.08 1.06 1.03 1.03 1.06 1.15 1.22 1.25 1.25 1.30 1.38 1.49 1.52 1.49 1.52 1.59 1.63 1.66 1.74
0.57 0.61 0.65 0.70 0.72 0.73 0.76 0.77 0.80 0.79 0.78 0.81 0.84 0.84 0.87 0.91 0.92 0.89 0.87 0.86 0.90 0.95 0.96 1.00 1.06 1.07 1.07 1.05 1.05 1.12 1.29 1.34 1.32 1.32 1.35 1.44 1.49 1.51 1.56 1.66 1.76 1.79 1.85
0.57 0.62 0.65 0.70 0.73 0.77 0.80 0.80 0.83 0.86 0.85 0.84 0.86 0.90 0.92 0.91 0.91 0.90 0.90 0.90 0.90 0.91 0.92 0.96 1.00 1.02 1.03 1.07 1.10 1.19 1.28 1.21 1.19 1.27 1.30 1.38 1.46 1.47 1.51 1.58 1.62 1.69 1.76

GEFSGL_prec_meanprecacc_372.txt.gz
Total_Precipitation_Accumulation
1.29 1.34 1.35 1.30 1.29 1.27 1.22 1.16 1.20 1.28 1.27 1.25 1.39 1.48 1.56 1.65 1.82 2.06 2.20 2.22 2.17 2.19 2.19 2.27 2.47 2.60 2.82 2.76 2.65 2.60 2.52 2.44 2.33 2.06 1.79 1.62 1.69 1.72 1.84 1.95 1.95 1.87 1.69
1.41 1.46 1.40 1.32 1.27 1.24 1.20 1.11 1.09 1.05 1.03 1.14 1.27 1.30 1.35 1.37 1.57 1.86 2.06 2.11 2.11 2.01 1.97 2.09 2.33 2.52 2.73 2.84 2.79 2.67 2.62 2.50 2.42 2.40 2.21 1.96 1.84 1.82 1.97 2.08 2.03 1.96 1.89
1.48 1.40 1.34 1.27 1.17 1.12 1.04 0.99 1.02 1.01 1.08 1.17 1.22 1.26 1.29 1.34 1.38 1.51 1.70 1.85 1.85 1.81 1.82 1.84 1.86 2.07 2.38 2.59 2.64 2.71 2.73 2.69 2.69 2.57 2.43 2.34 2.20 1.96 2.06 2.14 2.11 2.13 2.01
1.64 1.54 1.43 1.34 1.23 1.17 1.07 0.97 0.95 0.98 1.07 1.15 1.17 1.23 1.31 1.36 1.36 1.39 1.42 1.49 1.54 1.62 1.67 1.67 1.71 1.77 2.01 2.24 2.33 2.50 2.74 2.79 2.89 2.84 2.59 2.49 2.45 2.18 2.20 2.32 2.41 2.32 2.21
1.60 1.61 1.49 1.34 1.23 1.16 1.08 0.99 0.95 0.96 0.97 1.06 1.11 1.11 1.16 1.25 1.36 1.42 1.31 1.28 1.37 1.46 1.45 1.39 1.43 1.61 1.83 1.98 1.96 2.23 2.57 2.80 2.87 2.87 2.70 2.67 2.49 2.29 2.14 2.11 2.26 2.48 2.47
1.39 1.42 1.27 1.13 1.00 0.95 0.97 0.96 0.95 0.92 0.96 0.99 0.94 0.96 1.04 1.07 1.35 1.38 1.22 1.15 1.20 1.30 1.39 1.37 1.26 1.28 1.41 1.54 1.61 1.75 2.01 2.24 2.59 2.82 2.75 2.65 2.37 2.21 2.19 2.15 2.14 2.24 2.43
0.98 1.00 0.95 0.90 0.89 0.94 0.99 0.95 0.93 0.93 0.94 0.96 0.92 0.91 0.93 1.07 1.21 1.11 1.15 1.09 1.12 1.19 1.28 1.37 1.28 1.18 1.34 1.37 1.50 1.60 1.56 1.64 1.98 2.37 2.53 2.55 2.54 2.43 2.35 2.18 2.11 2.17 2.21
0.69 0.73 0.72 0.73 0.78 0.86 0.90 0.90 0.97 0.99 0.92 0.92 0.97 0.97 0.96 1.03 1.09 1.01 1.11 1.06 1.03 1.09 1.21 1.32 1.37 1.30 1.36 1.50 1.46 1.47 1.41 1.41 1.69 1.72 1.95 2.35 2.51 2.55 2.44 2.43 2.57 2.51 2.33
0.39 0.42 0.47 0.52 0.55 0.60 0.64 0.73 0.88 0.96 0.97 0.98 1.02 1.01 0.93 0.94 1.05 1.01 1.07 1.03 1.03 1.05 1.07 1.16 1.26 1.21 1.47 1.63 1.50 1.61 1.61 1.51 1.76 1.89 1.95 2.05 2.24 2.41 2.43 2.37 2.41 2.47 2.41
0.27 0.30 0.34 0.38 0.41 0.44 0.52 0.59 0.69 0.75 0.84 0.94 0.94 0.94 0.94 0.93 1.18 1.13 1.12 1.02 1.04 1.12 1.14 1.11 1.30 1.33 1.52 1.54 1.38 1.58 1.63 1.59 1.60 1.67 1.66 1.69 1.64 1.83 2.11 2.14 2.32 2.39 2.29
0.33 0.34 0.36 0.37 0.39 0.44 0.49 0.55 0.60 0.67 0.78 0.85 0.87 0.88 0.94 1.05 1.26 1.29 1.32 1.17 1.15 1.25 1.22 1.11 1.07 1.29 1.22 1.33 1.34 1.30 1.58 1.65 1.58 1.70 1.73 1.62 1.58 1.63 1.74 1.88 2.12 2.28 2.25
0.36 0.38 0.39 0.40 0.43 0.46 0.51 0.57 0.61 0.67 0.71 0.76 0.80 0.82 0.85 0.93 1.05 1.15 1.20 1.20 1.22 1.22 1.24 1.12 1.13 1.30 1.14 1.13 1.11 1.21 1.47 1.59 1.53 1.65 1.71 1.71 1.62 1.56 1.60 1.68 1.78 1.85 1.87
0.38 0.39 0.41 0.42 0.44 0.44 0.49 0.56 0.61 0.64 0.67 0.71 0.75 0.81 0.84 0.87 0.94 1.01 1.00 1.05 1.12 1.12 1.10 1.20 1.24 1.23 1.12 1.01 1.01 1.12 1.21 1.29 1.48 1.55 1.52 1.53 1.53 1.55 1.60 1.60 1.63 1.65 1.66
0.38 0.40 0.41 0.42 0.43 0.46 0.48 0.54 0.58 0.62 0.65 0.70 0.77 0.80 0.82 0.85 0.88 0.90 0.97 1.04 1.01 1.00 1.01 1.03 1.05 1.07 1.05 0.97 0.98 1.04 1.12 1.24 1.36 1.36 1.34 1.35 1.44 1.55 1.68 1.71 1.70 1.68 1.70
0.34 0.37 0.38 0.39 0.43 0.46 0.48 0.50 0.53 0.58 0.70 0.79 0.82 0.85 0.81 0.77 0.78 0.85 0.95 1.04 1.13 1.20 1.26 1.16 1.13 1.12 1.10 1.03 1.01 1.01 1.09 1.20 1.24 1.20 1.22 1.22 1.26 1.41 1.56 1.65 1.73 1.72 1.69
0.39 0.37 0.36 0.38 0.42 0.45 0.47 0.47 0.51 0.54 0.65 0.72 0.73 0.73 0.72 0.75 0.80 0.79 0.82 0.93 1.07 1.25 1.37 1.32 1.36 1.36 1.32 1.26 1.20 1.14 1.09 1.11 1.17 1.25 1.29 1.29 1.27 1.34 1.49 1.58 1.66 1.72 1.69
0.39 0.41 0.40 0.41 0.41 0.45 0.46 0.46 0.50 0.52 0.54 0.60 0.64 0.66 0.73 0.82 0.86 0.88 0.89 0.95 1.00 1.15 1.30 1.32 1.36 1.38 1.33 1.32 1.34 1.26 1.15 1.11 1.16 1.24 1.31 1.36 1.39 1.43 1.54 1.61 1.66 1.72 1.74
0.39 0.42 0.45 0.45 0.46 0.48 0.53 0.57 0.58 0.61 0.62 0.57 0.56 0.58 0.62 0.72 0.79 0.85 0.95 1.05 1.02 1.08 1.16 1.21 1.24 1.17 1.14 1.15 1.16 1.16 1.11 1.08 1.11 1.15 1.19 1.27 1.37 1.47 1.55 1.64 1.67 1.68 1.70
0.39 0.43 0.47 0.53 0.56 0.54 0.56 0.62 0.64 0.58 0.55 0.55 0.55 0.57 0.59 0.62 0.67 0.73 0.85 0.99 1.01 0.99 0.96 0.95 0.94 0.95 0.95 1.00 1.01 1.01 1.02 1.03 1.04 1.09 1.12 1.19 1.29 1.38 1.46 1.51 1.61 1.70 1.69
0.38 0.47 0.50 0.53 0.56 0.55 0.55 0.60 0.62 0.61 0.61 0.63 0.64 0.68 0.70 0.69 0.71 0.77 0.80 0.86 0.88 0.87 0.88 0.90 0.91 0.94 0.99 1.01 1.03 1.04 1.04 1.04 1.05 1.08 1.12 1.18 1.25 1.34 1.41 1.47 1.55 1.64 1.63
0.41 0.43 0.48 0.51 0.54 0.56 0.56 0.61 0.63 0.64 0.67 0.70 0.69 0.74 0.81 0.78 0.79 0.84 0.92 0.94 0.95 0.95 0.94 0.94 0.92 0.92 1.01 1.06 1.07 1.10 1.12 1.12 1.13 1.16 1.18 1.23 1.30 1.36 1.39 1.48 1.57 1.61 1.67
0.43 0.44 0.46 0.52 0.55 0.58 0.61 0.65 0.71 0.70 0.70 0.74 0.74 0.76 0.84 0.80 0.79 0.79 0.84 0.89 0.93 0.96 1.02 1.06 1.05 1.02 1.04 1.12 1.19 1.21 1.24 1.25 1.23 1.24 1.26 1.28 1.35 1.38 1.41 1.51 1.62 1.65 1.69
0.52 0.53 0.55 0.56 0.58 0.61 0.64 0.67 0.73 0.73 0.74 0.77 0.80 0.78 0.79 0.82 0.82 0.80 0.81 0.84 0.87 0.93 0.99 1.07 1.12 1.10 1.05 1.08 1.16 1.25 1.31 1.32 1.32 1.35 1.43 1.46 1.44 1.45 1.49 1.54 1.61 1.68 1.68
0.56 0.61 0.67 0.69 0.71 0.71 0.72 0.76 0.79 0.77 0.77 0.81 0.84 0.85 0.84 0.88 0.88 0.86 0.87 0.90 0.94 0.98 1.02 1.07 1.10 1.08 1.05 1.04 1.09 1.17 1.25 1.29 1.29 1.34 1.40 1.52 1.55 1.53 1.56 1.64 1.68 1.71 1.79
0.58 0.63 0.67 0.72 0.74 0.75 0.77 0.79 0.82 0.81 0.80 0.83 0.86 0.86 0.89 0.93 0.94 0.91 0.89 0.88 0.92 0.98 0.99 1.03 1.08 1.09 1.08 1.06 1.06 1.13 1.30 1.35 1.33 1.34 1.38 1.47 1.52 1.55 1.61 1.71 1.80 1.84 1.90
0.58 0.63 0.67 0.72 0.75 0.79 0.82 0.82 0.84 0.88 0.88 0.87 0.89 0.92 0.94 0.94 0.95 0.94 0.94 0.92 0.92 0.93 0.94 0.97 1.01 1.03 1.05 1.08 1.11 1.20 1.29 1.22 1.19 1.28 1.31 1.40 1.49 1.50 1.55 1.63 1.66 1.74 1.81

GEFSGL_prec_meanprecacc_378.txt.gz
Total_Precipitation_Accumulation
1.30 1.35 1.38 1.33 1.32 1.30 1.25 1.19 1.22 1.29 1.29 1.27 1.41 1.51 1.58 1.67 1.83 2.06 2.21 2.22 2.17 2.19 2.19 2.27 2.47 2.60 2.82 2.77 2.66 2.61 2.54 2.46 2.36 2.09 1.82 1.66 1.72 1.74 1.86 1.98 1.98 1.91 1.74
1.41 1.46 1.41 1.35 1.30 1.27 1.23 1.15 1.12 1.08 1.05 1.15 1.28 1.32 1.36 1.38 1.58 1.87 2.06 2.12 2.11 2.02 1.97 2.09 2.33 2.53 2.74 2.85 2.80 2.69 2.65 2.53 2.45 2.43 2.23 1.99 1.87 1.87 2.02 2.11 2.06 2.00 1.95
1.49 1.40 1.35 1.28 1.19 1.14 1.06 1.02 1.05 1.04 1.10 1.20 1.24 1.27 1.30 1.35 1.38 1.51 1.71 1.85 1.85 1.81 1.82 1.84 1.87 2.08 2.39 2.60 2.65 2.72 2.75 2.72 2.72 2.61 2.46 2.37 2.23 2.01 2.11 2.18 2.14 2.16 2.05
1.64 1.55 1.44 1.35 1.25 1.19 1.09 1.00 0.97 1.00 1.09 1.18 1.20 1.25 1.33 1.38 1.38 1.40 1.42 1.49 1.54 1.63 1.67 1.68 1.72 1.77 2.02 2.25 2.34 2.51 2.75 2.81 2.90 2.87 2.62 2.52 2.49 2.22 2.25 2.38 2.45 2.35 2.25
1.60 1.61 1.50 1.35 1.24 1.18 1.11 1.01 0.97 0.98 1.00 1.08 1.13 1.14 1.18 1.28 1.38 1.43 1.31 1.28 1.37 1.46 1.45 1.40 1.44 1.62 1.84 1.98 1.97 2.24 2.58 2.80 2.88 2.88 2.72 2.70 2.54 2.36 2.20 2.17 2.32 2.52 2.50
1.40 1.43 1.28 1.14 1.02 0.97 0.99 0.99 0.98 0.95 0.99 1.02 0.97 0.98 1.06 1.09 1.36 1.40 1.24 1.15 1.20 1.31 1.39 1.38 1.27 1.29 1.42 1.55 1.61 1.76 2.02 2.26 2.59 2.83 2.77 2.68 2.41 2.26 2.22 2.19 2.21 2.30 2.47
1.00 1.02 0.97 0.92 0.91 0.96 1.01 0.98 0.97 0.97 0.98 0.99 0.95 0.94 0.96 1.09 1.23 1.13 1.17 1.10 1.13 1.19 1.28 1.37 1.28 1.18 1.35 1.37 1.51 1.60 1.57 1.66 2.00 2.39 2.55 2.58 2.56 2.45 2.37 2.21 2.16 2.23 2.26
0.71 0.75 0.75 0.76 0.81 0.89 0.92 0.92 0.99 1.03 0.97 0.97 1.01 1.01 1.00 1.07 1.12 1.03 1.13 1.08 1.05 1.09 1.22 1.33 1.38 1.31 1.36 1.50 1.46 1.47 1.41 1.42 1.71 1.74 1.98 2.38 2.53 2.56 2.45 2.45 2.59 2.55 2.38
0.41 0.44 0.49 0.55 0.59 0.63 0.67 0.76 0.90 0.98 1.00 1.03 1.08 1.08 0.99 0.99 1.10 1.05 1.09 1.05 1.04 1.06 1.09 1.18 1.28 1.22 1.48 1.64 1.51 1.62 1.62 1.52 1.78 1.91 1.98 2.08 2.26 2.44 2.47 2.40 2.43 2.50 2.46
0.28 0.32 0.36 0.41 0.45 0.48 0.55 0.63 0.72 0.78 0.87 0.98 1.01 1.01 1.02 0.99 1.23 1.17 1.16 1.04 1.06 1.13 1.15 1.12 1.32 1.35 1.53 1.55 1.39 1.59 1.64 1.60 1.61 1.68 1.68 1.71 1.66 1.85 2.14 2.18 2.37 2.43 2.33
0.34 0.35 0.37 0.39 0.41 0.47 0.53 0.59 0.64 0.71 0.81 0.88 0.92 0.95 1.02 1.12 1.32 1.33 1.35 1.20 1.18 1.27 1.23 1.13 1.08 1.31 1.24 1.35 1.36 1.32 1.59 1.67 1.60 1.72 1.75 1.64 1.60 1.66 1.78 1.92 2.18 2.34 2.31
0.37 0.39 0.41 0.42 0.45 0.48 0.54 0.60 0.64 0.69 0.73 0.79 0.83 0.88 0.93 1.02 1.12 1.20 1.23 1.23 1.24 1.23 1.25 1.13 1.14 1.31 1.16 1.15 1.13 1.22 1.49 1.61 1.54 1.67 1.73 1.73 1.64 1.58 1.62 1.72 1.82 1.90 1.93
0.39 0.40 0.44 0.45 0.47 0.47 0.51 0.58 0.63 0.66 0.70 0.74 0.79 0.85 0.91 0.95 1.02 1.08 1.05 1.08 1.15 1.14 1.12 1.21 1.25 1.24 1.12 1.02 1.02 1.13 1.23 1.31 1.49 1.57 1.54 1.55 1.55 1.58 1.62 1.62 1.66 1.69 1.70
0.39 0.42 0.43 0.43 0.45 0.48 0.51 0.55 0.60 0.64 0.67 0.72 0.79 0.83 0.86 0.91 0.94 0.95 1.02 1.07 1.03 1.01 1.02 1.04 1.06 1.08 1.06 0.98 0.98 1.05 1.13 1.25 1.37 1.37 1.36 1.37 1.46 1.58 1.71 1.74 1.73 1.71 1.74
0.36 0.39 0.39 0.41 0.45 0.48 0.49 0.52 0.54 0.59 0.71 0.80 0.83 0.87 0.84 0.81 0.82 0.89 0.99 1.08 1.16 1.21 1.27 1.18 1.15 1.13 1.10 1.03 1.01 1.02 1.10 1.20 1.24 1.20 1.22 1.23 1.27 1.42 1.58 1.67 1.76 1.75 1.73
0.41 0.39 0.38 0.40 0.43 0.46 0.48 0.49 0.52 0.55 0.66 0.73 0.74 0.75 0.75 0.78 0.84 0.82 0.85 0.97 1.12 1.29 1.40 1.33 1.37 1.37 1.33 1.26 1.21 1.14 1.10 1.12 1.17 1.25 1.29 1.30 1.29 1.35 1.51 1.60 1.69 1.75 1.72
0.41 0.43 0.42 0.42 0.42 0.46 0.47 0.46 0.51 0.53 0.55 0.61 0.66 0.68 0.75 0.85 0.91 0.93 0.93 0.98 1.04 1.20 1.33 1.34 1.39 1.40 1.34 1.33 1.35 1.27 1.16 1.11 1.16 1.25 1.32 1.37 1.40 1.45 1.55 1.63 1.67 1.74 1.76
0.40 0.43 0.45 0.46 0.46 0.48 0.53 0.57 0.59 0.62 0.63 0.59 0.59 0.61 0.64 0.75 0.83 0.90 1.01 1.10 1.07 1.13 1.20 1.24 1.27 1.20 1.17 1.18 1.18 1.18 1.13 1.10 1.13 1.16 1.21 1.29 1.39 1.49 1.57 1.66 1.69 1.70 1.72
0.39 0.44 0.48 0.53 0.57 0.55 0.57 0.63 0.65 0.59 0.56 0.56 0.57 0.59 0.62 0.66 0.71 0.78 0.92 1.05 1.06 1.03 1.00 0.99 0.99 0.99 1.00 1.05 1.04 1.04 1.05 1.05 1.06 1.10 1.14 1.20 1.30 1.40 1.47 1.53 1.63 1.73 1.71
0.39 0.48 0.51 0.53 0.56 0.56 0.56 0.61 0.62 0.62 0.62 0.64 0.65 0.69 0.72 0.72 0.74 0.80 0.85 0.92 0.92 0.90 0.91 0.94 0.95 0.97 1.03 1.06 1.07 1.08 1.07 1.07 1.08 1.10 1.13 1.19 1.26 1.35 1.43 1.48 1.56 1.66 1.65
0.42 0.44 0.49 0.52 0.55 0.57 0.57 0.61 0.64 0.64 0.67 0.71 0.70 0.75 0.82 0.79 0.81 0.87 0.95 0.99 1.00 1.00 0.99 0.98 0.96 0.96 1.04 1.09 1.12 1.14 1.15 1.15 1.17 1.19 1.21 1.25 1.32 1.38 1.41 1.49 1.59 1.63 1.69
0.44 0.46 0.47 0.53 0.56 0.59 0.62 0.66 0.71 0.71 0.71 0.75 0.74 0.77 0.85 0.81 0.80 0.81 0.86 0.92 0.97 1.01 1.06 1.09 1.08 1.05 1.06 1.15 1.22 1.25 1.28 1.29 1.27 1.27 1.28 1.31 1.37 1.40 1.43 1.52 1.65 1.68 1.72
0.53 0.54 0.56 0.57 0.59 0.62 0.65 0.68 0.74 0.74 0.74 0.78 0.81 0.80 0.80 0.83 0.84 0.81 0.83 0.86 0.90 0.97 1.04 1.11 1.15 1.13 1.08 1.10 1.18 1.28 1.35 1.35 1.35 1.38 1.45 1.48 1.47 1.47 1.51 1.57 1.64 1.71 1.71
0.57 0.62 0.67 0.70 0.71 0.72 0.73 0.77 0.80 0.78 0.79 0.83 0.85 0.86 0.85 0.89 0.89 0.87 0.88 0.92 0.97 1.02 1.07 1.11 1.13 1.11 1.08 1.07 1.11 1.19 1.27 1.31 1.32 1.37 1.43 1.55 1.58 1.56 1.59 1.67 1.71 1.74 1.82
0.60 0.63 0.67 0.72 0.74 0.76 0.78 0.79 0.83 0.82 0.82 0.85 0.88 0.87 0.90 0.94 0.96 0.93 0.90 0.89 0.94 1.00 1.02 1.06 1.10 1.11 1.10 1.09 1.09 1.15 1.32 1.38 1.36 1.37 1.40 1.50 1.55 1.58 1.64 1.74 1.84 1.87 1.93
0.59 0.64 0.68 0.72 0.76 0.80 0.82 0.82 0.85 0.88 0.89 0.88 0.91 0.95 0.96 0.97 0.97 0.96 0.95 0.94 0.94 0.96 0.97 1.00 1.04 1.05 1.07 1.10 1.14 1.24 1.32 1.24 1.22 1.31 1.34 1.43 1.52 1.53 1.58 1.66 1.70 1.77 1.85

GEFSGL_prec_meanprecacc_384.txt.gz
Total_Precipitation_Accumulation
1.30 1.36 1.38 1.33 1.33 1.32 1.28 1.23 1.27 1.35 1.34 1.31 1.44 1.53 1.59 1.68 1.85 2.07 2.22 2.23 2.18 2.20 2.19 2.28 2.48 2.61 2.84 2.78 2.67 2.63 2.55 2.48 2.38 2.11 1.84 1.68 1.74 1.77 1.88 1.99 2.00 1.94 1.79
1.41 1.47 1.41 1.35 1.30 1.28 1.25 1.17 1.15 1.12 1.11 1.21 1.33 1.36 1.39 1.42 1.61 1.89 2.08 2.13 2.13 2.02 1.97 2.09 2.33 2.54 2.75 2.86 2.81 2.71 2.67 2.55 2.47 2.44 2.25 2.02 1.90 1.89 2.04 2.13 2.08 2.03 1.99
1.49 1.40 1.35 1.28 1.19 1.15 1.07 1.03 1.06 1.06 1.14 1.25 1.29 1.31 1.33 1.39 1.43 1.55 1.74 1.87 1.87 1.82 1.83 1.85 1.87 2.08 2.39 2.61 2.65 2.73 2.76 2.73 2.74 2.63 2.48 2.39 2.26 2.03 2.14 2.20 2.17 2.17 2.07
1.64 1.55 1.44 1.35 1.25 1.19 1.09 1.00 0.98 1.01 1.11 1.21 1.24 1.29 1.36 1.40 1.40 1.43 1.44 1.51 1.55 1.63 1.68 1.69 1.73 1.78 2.03 2.25 2.34 2.51 2.75 2.81 2.92 2.89 2.65 2.56 2.53 2.24 2.27 2.39 2.48 2.37 2.27
1.61 1.62 1.50 1.36 1.25 1.18 1.12 1.02 0.98 0.99 1.01 1.10 1.15 1.16 1.22 1.31 1.41 1.46 1.35 1.31 1.39 1.47 1.46 1.41 1.44 1.63 1.85 1.99 1.97 2.25 2.59 2.81 2.89 2.88 2.73 2.73 2.61 2.42 2.24 2.19 2.34 2.55 2.53
1.41 1.44 1.29 1.15 1.02 0.97 0.99 1.00 0.98 0.95 1.00 1.03 0.98 1.00 1.09 1.12 1.39 1.43 1.27 1.18 1.22 1.32 1.40 1.38 1.27 1.30 1.43 1.55 1.62 1.77 2.03 2.27 2.60 2.83 2.77 2.70 2.45 2.31 2.26 2.23 2.24 2.33 2.51
1.03 1.04 0.98 0.92 0.91 0.97 1.02 0.98 0.97 0.98 0.98 1.00 0.96 0.96 0.98 1.12 1.26 1.15 1.20 1.13 1.16 1.21 1.29 1.38 1.29 1.19 1.35 1.38 1.51 1.61 1.57 1.67 2.00 2.39 2.56 2.59 2.58 2.47 2.39 2.23 2.19 2.26 2.28
0.76 0.78 0.76 0.78 0.82 0.90 0.94 0.93 1.00 1.04 0.98 0.98 1.03 1.03 1.01 1.09 1.15 1.06 1.16 1.10 1.08 1.12 1.24 1.34 1.38 1.31 1.37 1.51 1.47 1.47 1.42 1.43 1.72 1.75 1.98 2.39 2.54 2.57 2.46 2.46 2.62 2.59 2.41
0.45 0.49 0.53 0.57 0.61 0.65 0.69 0.78 0.92 1.00 1.02 1.05 1.10 1.10 1.02 1.01 1.13 1.08 1.13 1.08 1.07 1.09 1.12 1.21 1.29 1.23 1.49 1.65 1.52 1.62 1.62 1.53 1.78 1.92 2.00 2.10 2.28 2.46 2.48 2.41 2.45 2.53 2.51
0.30 0.34 0.40 0.44 0.47 0.50 0.58 0.66 0.75 0.80 0.89 1.01 1.03 1.03 1.04 1.02 1.27 1.21 1.20 1.09 1.10 1.17 1.19 1.16 1.36 1.37 1.55 1.58 1.41 1.60 1.65 1.61 1.62 1.69 1.69 1.72 1.67 1.86 2.16 2.19 2.37 2.44 2.35
0.36 0.37 0.39 0.41 0.43 0.49 0.56 0.61 0.68 0.74 0.84 0.90 0.93 0.96 1.03 1.14 1.35 1.36 1.39 1.25 1.23 1.33 1.29 1.18 1.12 1.35 1.28 1.39 1.40 1.34 1.62 1.69 1.62 1.73 1.76 1.64 1.61 1.67 1.79 1.94 2.18 2.36 2.34
0.39 0.41 0.42 0.43 0.47 0.51 0.57 0.63 0.67 0.72 0.75 0.80 0.84 0.89 0.94 1.03 1.13 1.22 1.26 1.27 1.29 1.29 1.31 1.19 1.20 1.36 1.21 1.20 1.17 1.26 1.53 1.65 1.57 1.69 1.74 1.74 1.66 1.59 1.64 1.74 1.85 1.92 1.96
0.40 0.42 0.45 0.46 0.48 0.49 0.54 0.61 0.66 0.68 0.71 0.75 0.80 0.86 0.91 0.96 1.03 1.09 1.07 1.11 1.18 1.18 1.16 1.26 1.30 1.29 1.17 1.06 1.06 1.17 1.26 1.34 1.52 1.59 1.56 1.57 1.57 1.60 1.63 1.63 1.68 1.71 1.73
0.41 0.44 0.44 0.45 0.46 0.49 0.52 0.57 0.62 0.66 0.68 0.73 0.80 0.84 0.87 0.91 0.95 0.96 1.04 1.09 1.06 1.04 1.05 1.06 1.09 1.11 1.10 1.02 1.02 1.09 1.16 1.28 1.39 1.39 1.38 1.39 1.48 1.60 1.72 1.75 1.74 1.73 1.76
0.39 0.41 0.41 0.43 0.47 0.49 0.50 0.53 0.55 0.60 0.72 0.80 0.84 0.87 0.85 0.82 0.83 0.90 1.00 1.10 1.19 1.25 1.31 1.21 1.17 1.15 1.12 1.05 1.03 1.04 1.12 1.22 1.26 1.22 1.25 1.26 1.30 1.44 1.60 1.69 1.77 1.77 1.75
0.45 0.42 0.40 0.41 0.44 0.47 0.49 0.49 0.53 0.56 0.66 0.73 0.74 0.75 0.75 0.79 0.84 0.83 0.87 0.99 1.14 1.32 1.45 1.38 1.42 1.41 1.36 1.28 1.22 1.15 1.11 1.13 1.18 1.26 1.30 1.31 1.30 1.37 1.52 1.62 1.70 1.77 1.74
0.43 0.45 0.44 0.43 0.43 0.47 0.48 0.47 0.53 0.54 0.56 0.62 0.66 0.68 0.75 0.86 0.91 0.94 0.95 1.01 1.07 1.24 1.37 1.38 1.43 1.44 1.39 1.36 1.36 1.27 1.17 1.12 1.17 1.26 1.32 1.38 1.41 1.46 1.57 1.64 1.69 1.76 1.78
0.41 0.44 0.47 0.47 0.48 0.49 0.54 0.58 0.60 0.63 0.64 0.60 0.59 0.61 0.65 0.76 0.84 0.92 1.03 1.12 1.10 1.16 1.23 1.27 1.30 1.24 1.21 1.22 1.21 1.20 1.14 1.11 1.14 1.17 1.22 1.30 1.40 1.50 1.58 1.67 1.71 1.73 1.74
0.40 0.45 0.48 0.54 0.58 0.56 0.58 0.64 0.66 0.60 0.57 0.57 0.58 0.60 0.62 0.67 0.73 0.81 0.95 1.07 1.08 1.06 1.03 1.02 1.02 1.03 1.04 1.08 1.07 1.06 1.07 1.06 1.07 1.12 1.15 1.21 1.31 1.41 1.48 1.54 1.64 1.75 1.73
0.40 0.49 0.52 0.54 0.57 0.57 0.57 0.62 0.63 0.63 0.63 0.65 0.66 0.71 0.73 0.73 0.76 0.82 0.88 0.96 0.97 0.95 0.96 0.98 0.99 1.01 1.07 1.10 1.11 1.11 1.10 1.10 1.10 1.12 1.15 1.21 1.27 1.37 1.44 1.50 1.58 1.69 1.67
0.43 0.46 0.50 0.53 0.56 0.58 0.58 0.62 0.65 0.66 0.69 0.72 0.71 0.76 0.84 0.81 0.83 0.89 0.97 1.02 1.05 1.05 1.03 1.02 1.01 1.01 1.09 1.14 1.17 1.19 1.19 1.19 1.20 1.22 1.23 1.27 1.33 1.40 1.42 1.51 1.61 1.65 1.72
0.46 0.47 0.49 0.55 0.57 0.60 0.63 0.67 0.72 0.72 0.72 0.76 0.76 0.78 0.87 0.83 0.82 0.83 0.89 0.95 1.00 1.05 1.10 1.14 1.13 1.10 1.12 1.20 1.27 1.30 1.33 1.33 1.31 1.31 1.32 1.33 1.39 1.42 1.45 1.55 1.67 1.70 1.74
0.54 0.55 0.57 0.59 0.61 0.64 0.67 0.69 0.75 0.76 0.76 0.79 0.82 0.81 0.82 0.86 0.86 0.84 0.86 0.89 0.93 1.01 1.09 1.16 1.19 1.17 1.12 1.14 1.22 1.32 1.40 1.40 1.39 1.42 1.49 1.52 1.50 1.50 1.54 1.60 1.67 1.74 1.74
0.58 0.63 0.68 0.71 0.72 0.73 0.74 0.78 0.82 0.80 0.81 0.84 0.87 0.88 0.87 0.91 0.91 0.88 0.90 0.95 1.00 1.06 1.12 1.15 1.16 1.14 1.10 1.10 1.14 1.22 1.31 1.35 1.36 1.40 1.47 1.58 1.62 1.60 1.63 1.71 1.75 1.78 1.86
0.61 0.64 0.68 0.73 0.75 0.76 0.79 0.80 0.84 0.83 0.83 0.87 0.89 0.90 0.93 0.96 0.97 0.94 0.92 0.92 0.97 1.04 1.05 1.09 1.13 1.13 1.12 1.11 1.12 1.18 1.36 1.42 1.40 1.40 1.43 1.52 1.58 1.61 1.68 1.78 1.87 1.91 1.97
0.61 0.66 0.69 0.74 0.77 0.80 0.83 0.83 0.86 0.89 0.90 0.90 0.93 0.97 0.99 0.99 0.99 0.98 0.98 0.97 0.98 0.99 0.99 1.03 1.06 1.07 1.09 1.12 1.16 1.27 1.36 1.27 1.24 1.33 1.36 1.45 1.54 1.56 1.61 1.69 1.73 1.81 1.88